Location: Erfurt
(50.9688°N, 11.0193°E)
Time: 03:44:30
(UTC+02:00)

ISS - Pass Details

Date: 07 January 2018
Orbit: 401 x 409 km, 51.6° (Epoch: 20 August)

Event Time Altitude Azimuth Distance (km) Brightness Sun altitude
Exits shadow 07:34:40 - 282° (WNW) 1,684 -1.3 -6.6°
Reaches altitude 10° 07:35:06 10° 280° (W) 1,511 -1.5 -6.5°
Maximum altitude 07:38:25 53° 204° (SSW) 531 -3.2 -6.0°
Drops below altitude 10° 07:41:45 10° 126° (SE) 1,515 0.9 -5.6°
Sets 07:43:52 0° 122° (ESE) 2,380 3.1 -5.3°
